Location: Regona
(45.2000°N, 9.8167°E)
Time: 01:14:18
(UTC+00:00)

Daily predictions for brighter satellites

Satellite Brightness Start Highest point End
(mag) Time Altitude Azimuth Time Altitude Azimuth Time Altitude Azimuth
STARLINK-1268 4.2 00:04:29 35° ENE 00:04:29 35° ENE 00:06:25 10° ENE
STARLINK-1303 3.4 00:05:53 63° ESE 00:05:53 63° ESE 00:09:17 10° ENE
Cosmos 1570 Rocket 3.9 00:04:53 47° SSW 00:06:27 88° ESE 00:11:46 10° NNE
STARLINK-66 3.4 00:07:08 61° NNE 00:07:08 61° NNE 00:09:58 10° NE
Cosmos 1709 Rocket 3.9 00:05:05 40° S 00:07:27 89° ESE 00:13:41 10° N
Cosmos 1763 Rocket 3.8 00:05:57 38° WSW 00:07:39 57° WNW 00:12:39 10° NNE
Cosmos 1400 Rocket 4.0 00:03:47 10° N 00:07:40 38° ENE 00:09:10 28° ESE
STARLINK-1316 3.8 00:09:24 42° ENE 00:09:24 42° ENE 00:11:37 10° ENE
STARLINK-1312 3.3 00:09:13 71° ESE 00:09:13 71° ESE 00:12:47 10° ENE
Cosmos 2227 Rocket 3.0 00:04:12 10° NW 00:09:17 34° WSW 00:10:10 32° SW
STARLINK-1257 3.8 00:10:14 44° ENE 00:10:14 44° ENE 00:12:31 10° ENE
STARLINK-1256 3.7 00:11:11 45° ENE 00:11:11 45° ENE 00:13:29 10° ENE
STARLINK-58 4.1 00:11:42 35° E 00:11:42 35° E 00:13:46 10° ENE
STARLINK-1213 3.7 00:12:02 46° ENE 00:12:02 46° ENE 00:14:21 10° ENE
STARLINK-1263 3.6 00:12:53 48° ENE 00:12:53 48° ENE 00:15:15 10° ENE
STARLINK-1259 3.6 00:13:47 49° ENE 00:13:47 49° ENE 00:16:11 10° ENE
STARLINK-1265 3.5 00:14:09 51° ENE 00:14:09 51° ENE 00:16:38 10° ENE
Cosmos 2084 Rocket 3.4 00:09:10 10° NW 00:13:39 86° WSW 00:14:58 46° SSE
STARLINK-1285 3.6 00:14:38 51° ENE 00:14:38 51° ENE 00:17:04 10° ENE
SL-16 R/B 3.5 00:10:23 13° SE 00:15:37 43° ENE 00:21:25 10° N
STARLINK-1296 3.5 00:16:22 54° NE 00:16:22 54° NE 00:18:53 10° ENE
Cosmos 1758 Rocket 3.5 00:15:28 57° SSW 00:16:19 78° W 00:20:46 10° N
Cosmos 2298 Rocket 4.5 00:11:21 10° NNW 00:16:37 59° ENE 00:19:50 23° SE
STARLINK-1260 3.4 00:17:14 55° NE 00:17:14 55° NE 00:19:47 10° ENE
STARLINK-1318 3.4 00:18:06 57° NE 00:18:06 57° NE 00:20:41 10° ENE
STARLINK-75 3.3 00:18:02 64° NNW 00:18:02 64° NNW 00:21:13 10° NE
STARLINK-1275 3.3 00:18:59 58° NE 00:18:59 58° NE 00:21:36 10° ENE
STARLINK-48 4.0 00:19:05 44° ESE 00:19:05 44° ESE 00:22:26 10° ENE
STARLINK-1309 3.3 00:19:50 59° NE 00:19:50 59° NE 00:22:28 10° NE
STARLINK-1282 3.3 00:20:42 60° NE 00:20:42 60° NE 00:23:22 10° NE
IRAS Rocket 4.2 00:18:06 32° SSE 00:20:46 81° ENE 00:26:20 10° NNW
STARLINK-1283 3.5 00:20:03 58° WSW 00:20:50 88° NNW 00:24:58 10° ENE
STARLINK-1313 3.2 00:21:38 64° NNE 00:21:38 64° NNE 00:24:29 10° NE
STARLINK-80 3.3 00:21:07 71° WSW 00:21:30 87° NNW 00:25:19 10° ENE
STARLINK-1279 3.2 00:22:33 64° N 00:22:33 64° N 00:25:24 10° NE
STARLINK-1298 3.2 00:23:16 64° NNE 00:23:16 64° NNE 00:26:02 10° NE
CZ-4 R/B 4.4 00:18:52 10° N 00:23:24 47° WNW 00:24:50 35° WSW
STARLINK-1293 3.2 00:24:09 65° NNE 00:24:09 65° NNE 00:26:58 10° NE
SL-16 R/B 3.6 00:22:44 21° SE 00:25:05 28° ESE 00:29:51 10° NE
Cosmos 2208 Rocket 4.0 00:23:37 42° SSW 00:25:27 78° WNW 00:30:51 10° NNE
STARLINK-1255 3.1 00:25:54 67° NNE 00:25:54 67° NNE 00:28:47 10° NE
STARLINK-22 3.1 00:26:16 68° NNW 00:26:16 68° NNW 00:29:27 10° NE
STARLINK-1297 3.1 00:26:32 76° WSW 00:26:47 85° NNW 00:30:25 10° ENE
STARLINK-1311 3.3 00:28:27 55° N 00:28:27 55° N 00:31:09 10° NE
Cosmos 2285 Rocket 4.1 00:23:07 10° NNW 00:29:21 60° WSW 00:31:55 35° S
MOZ.5/SAFIR/RUBIN 5/SL-8 4.2 00:29:16 28° SE 00:31:35 59° ENE 00:36:09 10° N
USA 81 4.3 00:30:17 38° SW 00:32:02 57° W 00:37:15 10° N
CZ-2D R/B 3.0 00:27:42 10° NNE 00:32:35 39° E 00:35:02 25° SSE
USA 215 3.2 00:28:06 17° SSE 00:33:17 61° SW 00:39:47 10° NW
Cosmos-2242 3.0 00:29:26 10° NNW 00:33:38 61° W 00:34:24 51° SW
Meteor 2-10 Rocket 4.0 00:29:18 10° NNW 00:34:05 41° W 00:35:16 35° SW
Cosmos 1953 Rocket 3.5 00:33:32 50° S 00:34:41 90° WNW 00:39:06 10° N
Cosmos 2221 4.1 00:32:29 10° N 00:36:24 31° ENE 00:39:28 15° SE
STARLINK-42 3.9 00:36:26 37° WNW 00:37:03 43° NNW 00:40:04 10° NE
BREEZE-M R/B 4.0 00:31:36 10° W 00:37:19 46° N 00:40:26 10° ENE
STARLINK-1310 4.5 00:37:57 33° SE 00:38:01 33° SE 00:41:46 10° ENE
STARLINK-1029 3.0 00:39:04 70° E 00:39:04 70° E 00:41:58 10° ENE
STARLINK-34 2.9 00:40:02 74° N 00:40:02 74° N 00:43:01 10° NE
CZ-4C R/B 4.0 00:38:34 28° SE 00:40:45 60° ENE 00:45:09 10° N
STARLINK-41 3.9 00:40:11 36° WNW 00:40:48 42° NNW 00:43:43 10° NE
STARLINK-60 3.8 00:37:50 10° NW 00:40:57 50° NNE 00:44:04 10° ESE
GP-B 3.2 00:36:56 10° N 00:41:23 70° E 00:42:59 38° SSE
STARLINK-1272 3.5 00:42:02 44° W 00:42:53 62° NNW 00:46:25 10° NE
STARLINK-1319 4.3 00:42:43 36° SE 00:42:57 36° SE 00:46:47 10° ENE
Cosmos 540 Rocket 3.8 00:41:07 34° SW 00:43:08 55° WNW 00:48:11 10° NNE
Cosmos 1315 Rocket 4.3 00:39:38 10° N 00:43:13 33° ENE 00:45:45 17° SE
Cosmos 1842 Rocket 4.5 00:39:07 10° N 00:43:26 44° ENE 00:46:04 21° SE
STARLINK-62 2.9 00:43:45 69° NW 00:43:47 69° NNW 00:46:51 10° NE
Cosmos 2360 Rocket 4.2 00:43:58 11° SE 00:47:31 18° E 00:51:16 10° ENE
STARLINK-1277 4.2 00:47:31 39° SSE 00:47:54 40° SE 00:51:48 10° ENE
STARLINK-1307 3.7 00:46:48 37° W 00:48:03 61° NNW 00:51:44 10° NE
Helios 1B rocket 4.0 00:45:40 10° N 00:49:05 25° WNW 00:50:24 22° W
STARLINK-1290 3.8 00:50:11 34° W 00:51:34 58° NNW 00:55:15 10° NE
STARLINK-1276 4.1 00:52:19 40° SSE 00:52:53 43° SE 00:56:50 10° ENE
Shenzhou-11 Module 4.5 00:56:40 10° E 00:56:40 10° E 00:56:43 10° E
Cosmos 1980 Rocket 2.6 00:51:50 29° SW 00:54:36 55° WNW 01:00:11 10° NNE
Cosmos 2074 Rocket 4.0 00:51:22 29° S 00:54:50 82° E 01:01:08 10° N
Meteor 1-29 4.5 00:54:58 10° NNW 00:57:42 23° WNW 00:58:11 22° W
STARLINK-1305 4.0 00:57:04 42° S 00:57:48 47° SE 01:01:49 10° ENE
STARLINK-1306 3.9 00:57:24 43° S 00:58:15 51° SE 01:02:20 10° ENE
STARLINK-1317 4.1 00:56:33 25° W 00:58:34 52° NNW 01:02:25 10° NE
Cosmos 1455 4.0 00:57:28 10° NW 01:00:04 18° W 01:00:04 18° W
CZ-4B R/B 4.1 00:56:22 10° NNE 01:01:30 52° E 01:04:34 24° SSE
STARLINK-1274 4.1 01:00:55 25° W 01:02:37 47° NNW 01:06:03 10° NE
STARLINK-1262 3.9 01:01:53 42° S 01:02:48 51° SE 01:06:51 10° ENE
STARLINK-1291 4.2 01:04:16 22° W 01:06:19 47° NNW 01:09:56 10° NE
Meteor 1-11 4.3 01:03:54 31° SSW 01:06:34 64° WNW 01:12:07 10° N
STARLINK-1300 3.8 01:06:40 41° SSW 01:07:46 56° SE 01:11:50 10° ENE
Lacrosse 4 Rocket 3.7 01:06:52 10° W 01:07:20 11° W 01:07:20 11° W
STARLINK-1264 4.3 01:07:26 20° W 01:09:39 45° NNW 01:13:16 10° NE
ADEOS II 3.3 01:05:51 10° NNE 01:10:39 34° E 01:14:40 14° SSE
Cosmos 2263 Rocket 2.1 01:06:03 10° NNW 01:11:39 76° WSW 01:15:58 17° SSE
STARLINK-1295 3.7 01:11:26 39° SSW 01:12:43 61° SE 01:16:49 10° ENE
NOSS 2-1 (C) 2.9 01:12:04 48° SSW 01:12:54 74° SE 01:16:27 10° NE
STARLINK-1267 4.3 01:10:40 19° W 01:13:01 43° NNW 01:16:37 10° NE
STARLINK-29 3.9 01:10:37 10° NW 01:13:44 48° NNE 01:16:50 10° ESE
IRS-1D 4.3 01:08:55 10° NNE 01:13:59 46° E 01:17:31 18° SSE
UNK 3.6 01:11:40 29° S 01:14:00 73° WSW 01:18:35 10° NNW
SL-4 R/B 2.3 01:10:32 10° WNW 01:15:24 85° SSW 01:20:05 10° ESE
STARLINK-64 3.2 01:14:12 38° WSW 01:15:27 79° NNW 01:19:03 10° NE
AQUA 4.0 01:10:57 10° NNE 01:15:43 67° ESE 01:18:24 25° S
USA 229 DEB 3.8 01:10:06 10° NW 01:17:25 81° SW 01:25:03 10° SSE
USA 229 3.8 01:10:13 10° NW 01:17:31 82° SW 01:25:11 10° SSE
STARLINK-1287 3.6 01:16:12 37° SSW 01:17:41 67° SE 01:21:48 10° ENE
NOSS 2-1 (D) 2.8 01:16:50 45° SSW 01:17:47 85° SE 01:21:23 10° NE
NOSS 3-1 (C) 4.0 01:10:44 10° NW 01:18:19 76° SW 01:27:00 10° SSE
NPP 3.6 01:14:16 10° NNE 01:19:42 88° ESE 01:22:54 25° SSW
Cosmos 2184 Rocket 4.0 01:16:26 26° SSW 01:19:59 68° W 01:26:10 10° N
ARIANE 5 R/B 4.3 01:16:13 10° NE 01:20:19 25° E 01:24:22 10° SSE
CZ-4C R/B 4.2 01:18:08 10° W 01:22:32 24° NNW 01:27:38 10° NNE
BREEZE-M DEB (TANK) 2.3 01:23:13 39° WNW 01:23:41 51° NNW 01:26:24 10° ENE
Cosmos 1892 3.2 01:21:52 24° SSE 01:23:54 52° E 01:27:36 10° NNE
STARLINK-1299 3.6 01:24:06 30° SW 01:26:10 87° SE 01:30:26 10° ENE
NOSS 3-1 (A) 4.1 01:18:54 10° NW 01:26:30 87° NE 01:35:13 10° SE
STARLINK-1302 3.5 01:25:46 32° SW 01:27:38 78° SE 01:31:47 10° ENE
Cosmos 1610 Rocket 4.4 01:24:10 23° S 01:28:16 86° W 01:34:30 10° N
BREEZE-M DEB (TANK) 2.9 01:26:17 10° WNW 01:28:30 33° N 01:30:56 10° ENE
Cosmos 1869 3.1 01:27:06 10° NNW 01:30:58 76° W 01:33:00 26° S
STARLINK-1273 3.5 01:30:32 29° SW 01:32:35 84° SSE 01:36:45 10° ENE
Cosmos 2322 Rocket 2.2 01:29:42 24° SSW 01:33:12 80° ESE 01:38:50 10° NNE
In-Cosmos 22 Rocket 4.2 01:31:02 20° S 01:34:59 80° E 01:40:29 10° NNE
STARLINK-1288 3.5 01:35:19 26° WSW 01:37:34 90° SSE 01:41:44 10° ENE
STARLINK-61 3.4 01:35:51 30° SW 01:37:39 71° SE 01:41:34 10° ENE
Resurs 1-4 Rocket 2.5 01:36:24 10° N 01:41:33 52° WNW 01:44:54 21° SW
STARLINK-54 4.3 01:40:39 24° S 01:41:58 32° SE 01:45:14 10° ENE
STARLINK-1308 3.6 01:40:08 24° WSW 01:42:35 83° NNW 01:46:45 10° ENE
Cosmos 1076 Rocket 3.5 01:39:51 22° S 01:42:38 87° E 01:47:02 10° N
STARLINK-77 4.4 01:42:03 23° S 01:43:26 30° SE 01:46:39 10° ENE
Cosmos 2151 4.2 01:40:31 10° SSE 01:44:28 38° E 01:48:28 10° NNE
Cosmos 1125 Rocket 3.9 01:40:39 10° NW 01:45:33 42° WSW 01:48:54 19° SSW
H-2A R/B 4.1 01:42:52 10° SE 01:46:43 29° ENE 01:50:37 10° N
STARLINK-79 4.3 01:46:45 23° S 01:48:17 34° SE 01:51:37 10° ENE
STARLINK-52 3.0 01:45:53 10° NW 01:49:06 82° NNE 01:52:19 10° ESE
STARLINK-78 4.2 01:48:20 23° S 01:49:55 35° SE 01:53:16 10° ENE
STARLINK-57 4.1 01:49:58 24° S 01:51:36 38° SE 01:54:59 10° ENE
Cosmos 1408 2.8 01:49:31 18° S 01:52:06 69° E 01:55:46 10° NNE
STARLINK-1304 3.7 01:49:41 19° WSW 01:52:32 74° NNW 01:56:41 10° NE
STARLINK-49 4.1 01:51:26 23° S 01:53:08 37° SE 01:56:30 10° ENE
Cosmos 2154 Rocket 4.2 01:49:51 19° SSW 01:54:20 58° WNW 02:00:30 10° N
STARLINK-27 4.1 01:53:02 23° SSW 01:54:47 38° SE 01:58:11 10° ENE
GEOS 3 Rocket 3.6 01:51:01 10° SSE 01:56:09 65° SW 02:01:25 10° NW
STARLINK-74 4.0 01:54:35 22° SSW 01:56:24 39° SE 01:59:49 10° ENE
STARLINK-39 4.0 01:56:10 22° SSW 01:58:02 41° SE 02:01:28 10° ENE
Cosmos 1825 2.8 01:55:27 13° S 01:58:42 53° E 02:02:23 10° NNE
STARLINK-1278 4.0 01:55:21 15° WSW 01:58:44 62° NNW 02:02:58 10° NE
Cosmos 2237 4.4 01:54:31 16° SSW 01:59:03 71° ESE 02:04:47 10° NNE
SL-16 R/B 3.3 01:55:29 18° SSW 01:59:18 34° W 02:04:53 10° NNW
STARLINK-31 3.9 01:57:45 22° SSW 01:59:41 43° SE 02:03:08 10° ENE
STARLINK-1280 4.1 01:57:08 15° WSW 02:00:35 60° NNW 02:04:49 10° NE
SL-08 R/B 3.3 01:56:27 10° SSE 02:01:05 80° ENE 02:05:42 10° NNW
STARLINK-69 3.7 01:59:20 22° SSW 02:01:19 48° SE 02:04:48 10° ENE
STARLINK-21 3.8 02:00:55 21° SSW 02:02:58 46° SE 02:06:27 10° ENE
STARLINK-45 3.6 02:02:35 21° SSW 02:04:43 52° SE 02:08:16 10° ENE
STARLINK-1048 4.5 02:02:18 18° SSW 02:04:54 38° SE 02:08:46 10° ENE
IRS-P3 4.1 01:59:44 10° NNE 02:05:06 90° WNW 02:09:52 13° SSW
Cosmos 1844 Rocket 3.1 02:00:37 10° NNW 02:06:13 67° ENE 02:11:45 10° SE
NOSS 2-1 (E) 4.1 02:04:58 15° WSW 02:07:21 35° NW 02:10:49 10° NNE
STARLINK-76 3.7 02:05:36 20° SSW 02:07:50 51° SE 02:11:22 10° ENE
STARLINK-70 3.6 02:05:59 20° SSW 02:08:17 55° SE 02:11:53 10° ENE
SL-16 R/B 2.8 02:04:36 16° SW 02:08:55 48° WNW 02:14:25 10° NNE
STARLINK-1286 4.1 02:05:37 13° WSW 02:09:14 58° NNW 02:13:22 10° NE
STARLINK-23 3.6 02:07:11 20° SSW 02:09:27 53° SE 02:13:00 10° ENE
STARLINK-1049 4.3 02:07:06 17° SSW 02:09:52 42° SE 02:13:48 10° ENE
STARLINK-32 3.6 02:08:37 19° SSW 02:10:55 54° SE 02:14:25 10° ENE
STARLINK-1281 4.1 02:08:48 12° WSW 02:12:29 57° NNW 02:16:35 10° NE
CZ-2D R/B 3.2 02:08:02 10° N 02:12:30 29° WNW 02:16:21 13° WSW
STARLINK-40 3.5 02:10:18 19° SW 02:12:41 56° SE 02:16:16 10° ENE
COSMOS 2428 4.3 02:08:44 10° SSE 02:13:33 29° ESE 02:18:23 10° NE
Cosmos 2221 3.8 02:10:14 10° NW 02:13:49 25° W 02:16:17 15° SW
STARLINK-44 3.5 02:11:49 18° SW 02:14:16 58° SE 02:17:51 10° ENE
STARLINK-1051 4.2 02:11:51 17° SSW 02:14:48 46° SE 02:18:47 10° ENE
Cosmos 773 Rocket 4.1 02:11:02 13° SSW 02:15:45 81° ESE 02:21:05 10° NNE
STARLINK-37 3.4 02:13:33 18° SW 02:16:05 65° SE 02:19:42 10° ENE
STARLINK-60 4.1 02:14:16 10° W 02:16:51 23° SW 02:19:27 10° S
STARLINK-1310 4.2 02:13:35 11° WSW 02:17:29 53° NNW 02:21:33 10° NE
STARLINK-36 3.4 02:14:56 18° SW 02:17:31 62° SE 02:21:07 10° ENE
FALCON 9 DEB 3.1 02:14:58 10° WNW 02:18:26 90° SW 02:21:54 10° SE
Cosmos 1315 Rocket 4.4 02:16:43 10° NW 02:19:32 19° W 02:21:25 14° WSW
STARLINK-63 3.3 02:18:10 17° SW 02:20:52 70° SE 02:24:29 10° ENE
STARLINK-35 3.3 02:19:32 16° SW 02:22:14 68° SE 02:25:48 10° ENE
STARLINK-1319 4.3 02:18:25 10° W 02:22:28 50° NNW 02:26:31 10° NE
STARLINK-1375 4.5 02:19:31 10° NW 02:23:28 51° NNE 02:27:23 10° ESE
STARLINK-51 3.3 02:21:14 16° SW 02:24:03 71° SE 02:27:39 10° ENE
STARLINK-1028 4.0 02:21:25 15° SW 02:24:43 54° SE 02:28:47 10° ENE
Cosmos 2366 rocket 4.1 02:18:32 10° S 02:24:47 83° E 02:31:08 10° N
STARLINK-30 3.3 02:22:49 15° SW 02:25:42 73° SE 02:29:20 10° ENE
STARLINK-72 3.2 02:24:13 15° SW 02:27:06 75° SE 02:30:40 10° ENE
STARLINK-1277 4.4 02:23:26 10° W 02:27:28 48° NNW 02:31:30 10° NE
STARLINK-1350 4.4 02:23:52 10° NW 02:27:49 54° NNE 02:31:46 10° ESE
Shenzhou-11 Module 1.8 02:26:47 14° WSW 02:28:41 42° S 02:31:02 10° ESE
STARLINK-1021 3.9 02:26:14 14° SW 02:29:43 59° SE 02:33:48 10° ENE
Cosmos 2058 4.2 02:27:00 13° SW 02:30:01 27° WNW 02:33:38 10° NNW
STARLINK-59 3.2 02:27:25 14° SW 02:30:26 83° SSE 02:34:01 10° ENE
Cosmos 2360 Rocket 2.3 02:25:44 12° SW 02:30:53 70° WNW 02:36:33 10° NNE
Cosmos 1933 4.1 02:27:13 10° N 02:31:13 56° E 02:35:09 10° SSE
STARLINK-1010 3.8 02:28:17 13° SW 02:31:58 65° SE 02:36:11 10° ENE
STARLINK-1352 4.3 02:28:02 10° NW 02:32:00 57° NNE 02:35:57 10° ESE
STARLINK-56 3.2 02:29:04 13° SW 02:32:12 82° SE 02:35:51 10° ENE
STARLINK-73 3.2 02:30:38 13° SW 02:33:50 85° SSE 02:37:28 10° ENE
STARLINK-1019 3.8 02:30:59 13° SW 02:34:39 65° SE 02:38:46 10° ENE
Cosmos 1328 Rocket 3.9 02:30:23 10° N 02:34:47 70° E 02:39:07 10° SSE
STARLINK-38 3.2 02:32:12 12° SW 02:35:27 87° SSE 02:39:06 10° ENE
STARLINK-1368 4.2 02:32:43 10° NW 02:36:43 61° NNE 02:40:42 10° ESE
STARLINK-65 3.2 02:33:46 12° SW 02:37:06 89° SSE 02:40:45 10° ENE
STARLINK-68 3.3 02:34:23 12° WSW 02:37:48 85° NNW 02:41:28 10° ENE
STARLINK-53 3.3 02:35:24 11° WSW 02:38:48 85° NNW 02:42:27 10° ENE
STARLINK-1012 3.7 02:35:47 12° SW 02:39:38 70° SE 02:43:46 10° ENE
Cosmos 1980 Rocket 4.5 02:37:39 10° WNW 02:39:57 12° NW 02:42:17 10° NNW
STARLINK-50 3.4 02:37:26 11° WSW 02:41:05 90° NW 02:44:55 10° ENE
STARLINK-1369 4.1 02:37:09 10° NW 02:41:10 65° NNE 02:45:10 10° ESE
SL-24 DEB 4.4 02:37:55 10° N 02:42:26 58° W 02:46:56 10° SSW
Cosmos 2333 Rocket 2.7 02:38:50 10° S 02:44:22 61° ESE 02:49:58 10° NNE
STARLINK-1372 3.9 02:41:19 10° NW 02:45:18 68° NNE 02:49:16 10° ESE
Meteor 1-28 Rocket 3.5 02:42:04 10° S 02:45:39 45° W 02:49:16 10° NNW
STARLINK-71 3.6 02:41:49 10° WSW 02:45:50 82° NW 02:49:53 10° ENE
Landsat 5 3.7 02:42:23 10° SSE 02:46:54 90° ENE 02:51:22 10° NNW
Cosmos 2219 Rocket 2.6 02:42:59 10° S 02:48:29 61° ESE 02:54:00 10° NNE
STARLINK-1026 3.6 02:45:26 10° SW 02:49:34 82° SE 02:53:43 10° ENE
STARLINK-29 4.0 02:47:03 10° W 02:49:42 24° SW 02:52:19 10° SSE
Cosmos 2322 3.8 02:44:09 10° SSW 02:49:52 88° WNW 02:55:38 10° NNE
Cosmos 1727 Rocket 4.0 02:43:47 10° N 02:49:59 86° W 02:56:10 10° S
STARLINK-1378 3.8 02:46:03 10° NW 02:50:04 73° NNE 02:54:05 10° ESE
ADEOS II 3.0 02:45:36 10° N 02:50:18 34° WNW 02:54:59 10° SW
IDEFIX/ARIANE 42P 2.6 02:48:46 10° NNE 02:54:05 89° WNW 02:59:20 10° SSW
Cosmos 1782 4.3 02:50:26 10° N 02:54:16 41° ENE 02:58:03 10° SSE
Cosmos 2263 Rocket 4.1 02:53:37 10° W 02:54:32 10° W 02:55:27 10° WSW
STARLINK-1013 3.6 02:50:25 10° SW 02:54:33 88° SSE 02:58:43 10° ENE
STARLINK-1379 3.7 02:50:32 10° NW 02:54:35 78° NNE 02:58:37 10° ESE
SL-4 R/B 3.6 02:51:09 10° W 02:54:36 20° SW 02:57:54 10° S
ERS-2 2.7 02:51:48 10° S 02:55:15 39° W 02:58:44 10° NNW
Cosmos 1606 2.8 02:51:36 10° NNW 02:55:19 58° W 02:59:03 10° S
STARLINK-25 3.4 02:54:08 10° WSW 02:57:34 63° NNW 03:01:01 10° NE
STARLINK-1329 3.7 02:54:22 10° WNW 02:58:25 82° NNE 03:02:27 10° ESE
ATLAS 5 CENTAUR R/B 3.2 02:55:25 10° S 02:58:52 27° ESE 03:02:37 10° ENE
Cosmos 2333 4.2 02:53:42 10° SSW 02:59:18 79° WNW 03:04:58 10° NNE
STARLINK-1009 3.7 02:55:23 10° WSW 02:59:31 87° NW 03:03:42 10° ENE
ARIANE 5 R/B 3.1 02:54:52 10° N 02:59:35 43° WNW 03:04:16 10° SW
BREEZE-M R/B 1.9 02:57:03 10° WNW 03:00:12 84° NNE 03:02:36 10° ESE
